MSR798 LOWW-HECA

Flight info

Callsign MSR798
Flight time N/A
Altitude 37000
Route ARSIN DCT NALOX DCT BABIT DCT RAXAD DCT RUGAS DCT KOROS DCT KUMBI L612 BLT A16 CVO
Aircraft B738/M-SDE2E3FGHIRWXY/LB1

Departure

Time 2026-05-07 21:00
Airport Vienna International Airport (LOWW)

Arrival

Time N/A
Airport Cairo International Airport (HECA)
Time Latitude Longitude Altitude Speed Heading
2026-05-07 20:41 48.11848 16.56934 621 ft 0 kts 206°
2026-05-07 20:54 48.11850 16.56935 610 ft 3 kts 206°
2026-05-07 20:55 48.11874 16.56950 627 ft 4 kts 193°
2026-05-07 20:55 48.11900 16.56954 626 ft 4 kts 169°
2026-05-07 20:55 48.11921 16.56939 621 ft 3 kts 118°
2026-05-07 20:55 48.11922 16.56936 624 ft 1 kts 116°
2026-05-07 20:58 48.11913 16.56964 615 ft 8 kts 116°
2026-05-07 20:58 48.11876 16.57078 610 ft 17 kts 117°
2026-05-07 20:58 48.11838 16.57264 618 ft 19 kts 115°
2026-05-07 20:58 48.11817 16.57451 612 ft 19 kts 76°
2026-05-07 20:59 48.11852 16.57634 619 ft 18 kts 73°
2026-05-07 20:59 48.11843 16.57811 622 ft 17 kts 118°
2026-05-07 20:59 48.11762 16.57908 612 ft 13 kts 160°
2026-05-07 20:59 48.11656 16.57953 620 ft 34 kts 165°
2026-05-07 21:00 48.11188 16.58150 618 ft 104 kts 163°
2026-05-07 21:00 48.10292 16.58533 629 ft 161 kts 165°
2026-05-07 21:00 48.09187 16.59031 1271 ft 162 kts 166°
2026-05-07 21:00 48.08084 16.59484 1914 ft 175 kts 167°
2026-05-07 21:01 48.06889 16.59965 2544 ft 182 kts 168°
2026-05-07 21:01 48.05557 16.60484 2787 ft 213 kts 169°
2026-05-07 21:01 48.04042 16.61078 3019 ft 236 kts 166°
2026-05-07 21:01 48.02406 16.61799 3302 ft 252 kts 166°
2026-05-07 21:02 48.00711 16.62545 3786 ft 257 kts 166°
2026-05-07 21:02 47.98977 16.63286 4351 ft 260 kts 167°
2026-05-07 21:02 47.97145 16.63526 4700 ft 273 kts 184°
2026-05-07 21:02 47.95216 16.63353 5284 ft 280 kts 185°
2026-05-07 21:03 47.93275 16.63181 6208 ft 278 kts 184°
2026-05-07 21:03 47.91342 16.63025 7010 ft 279 kts 183°
2026-05-07 21:03 47.89384 16.62880 7740 ft 283 kts 183°
2026-05-07 21:03 47.87435 16.62746 8490 ft 286 kts 183°
2026-05-07 21:04 47.85407 16.62612 9207 ft 290 kts 183°
2026-05-07 21:04 47.83380 16.62483 9968 ft 293 kts 183°
2026-05-07 21:04 47.81314 16.62352 10434 ft 306 kts 184°
2026-05-07 21:04 47.79135 16.62214 10599 ft 328 kts 184°
2026-05-07 21:05 47.76757 16.62088 10896 ft 345 kts 180°
2026-05-07 21:05 47.74419 16.62808 11441 ft 354 kts 158°
2026-05-07 21:05 47.72200 16.64370 12230 ft 354 kts 155°
2026-05-07 21:05 47.69976 16.65984 12946 ft 358 kts 156°
2026-05-07 21:06 47.67724 16.67609 13667 ft 361 kts 156°
2026-05-07 21:06 47.65451 16.69234 14354 ft 364 kts 157°
2026-05-07 21:06 47.63160 16.70857 15053 ft 366 kts 157°
2026-05-07 21:06 47.60866 16.72473 15751 ft 369 kts 157°
2026-05-07 21:07 47.58542 16.74105 16442 ft 372 kts 157°
2026-05-07 21:07 47.56125 16.75514 17098 ft 373 kts 170°
2026-05-07 21:07 47.53554 16.75878 17795 ft 372 kts 179°
2026-05-07 21:07 47.50955 16.76074 18451 ft 375 kts 179°
2026-05-07 21:08 47.48338 16.76275 19007 ft 379 kts 179°
2026-05-07 21:08 47.45688 16.76492 19572 ft 382 kts 179°
2026-05-07 21:08 47.43022 16.76725 20142 ft 385 kts 179°
2026-05-07 21:08 47.40351 16.76967 20703 ft 388 kts 179°
2026-05-07 21:09 47.37633 16.77221 21284 ft 390 kts 179°
2026-05-07 21:09 47.34911 16.77478 21825 ft 394 kts 179°
2026-05-07 21:09 47.32169 16.77738 22352 ft 397 kts 179°
2026-05-07 21:09 47.29409 16.78000 22878 ft 400 kts 178°
2026-05-07 21:10 47.26612 16.78266 23382 ft 403 kts 178°
2026-05-07 21:10 47.23810 16.78532 23853 ft 406 kts 178°
2026-05-07 21:10 47.20984 16.78800 24305 ft 407 kts 178°
2026-05-07 21:10 47.18155 16.79069 24763 ft 408 kts 179°
2026-05-07 21:11 47.15314 16.79337 25213 ft 410 kts 179°
2026-05-07 21:11 47.12468 16.79606 25613 ft 412 kts 179°
2026-05-07 21:11 47.06698 16.80149 26399 ft 417 kts 180°
2026-05-07 21:12 47.03796 16.80423 26798 ft 419 kts 180°
2026-05-07 21:12 47.00881 16.80697 27185 ft 421 kts 180°
2026-05-07 21:12 46.97959 16.80972 27556 ft 423 kts 180°
2026-05-07 21:12 46.95009 16.81249 27849 ft 426 kts 181°
2026-05-07 21:13 46.92033 16.81532 28179 ft 430 kts 180°
2026-05-07 21:13 46.89079 16.82494 28480 ft 445 kts 162°
2026-05-07 21:13 46.86375 16.84831 28848 ft 459 kts 147°
2026-05-07 21:13 46.84148 16.88243 29166 ft 474 kts 130°
2026-05-07 21:14 46.82342 16.92297 29493 ft 479 kts 127°
2026-05-07 21:14 46.80587 16.96457 29681 ft 483 kts 127°
2026-05-07 21:14 46.78845 17.00651 29943 ft 486 kts 127°
2026-05-07 21:14 46.77080 17.04884 30221 ft 488 kts 127°
2026-05-07 21:15 46.75298 17.09107 30495 ft 489 kts 128°
2026-05-07 21:15 46.73502 17.13320 30869 ft 487 kts 128°
2026-05-07 21:15 46.71706 17.17496 31289 ft 485 kts 128°
2026-05-07 21:15 46.69913 17.21638 31622 ft 483 kts 128°
2026-05-07 21:16 46.68110 17.25781 31842 ft 486 kts 128°
2026-05-07 21:16 46.66299 17.29934 32195 ft 483 kts 128°
2026-05-07 21:16 46.64518 17.34021 32753 ft 477 kts 128°
2026-05-07 21:16 46.62744 17.38085 33153 ft 475 kts 128°
2026-05-07 21:17 46.60970 17.42140 33416 ft 476 kts 128°
2026-05-07 21:17 46.59187 17.46206 33656 ft 477 kts 128°
2026-05-07 21:17 46.57406 17.50264 33980 ft 475 kts 128°
2026-05-07 21:17 46.55629 17.54313 34301 ft 474 kts 128°
2026-05-07 21:18 46.53858 17.58339 34533 ft 474 kts 128°
2026-05-07 21:18 46.52082 17.62371 34714 ft 474 kts 128°
2026-05-07 21:18 46.50303 17.66406 35019 ft 472 kts 128°
2026-05-07 21:18 46.48534 17.70413 35250 ft 473 kts 128°
2026-05-07 21:19 46.46762 17.74418 35411 ft 474 kts 128°
2026-05-07 21:19 46.44969 17.78463 35605 ft 475 kts 128°
2026-05-07 21:19 46.43184 17.82488 35841 ft 474 kts 128°
2026-05-07 21:19 46.41401 17.86502 36073 ft 474 kts 128°
2026-05-07 21:20 46.39620 17.90507 36287 ft 474 kts 128°
2026-05-07 21:20 46.37834 17.94516 36470 ft 474 kts 128°
2026-05-07 21:20 46.36043 17.98531 36702 ft 473 kts 128°
2026-05-07 21:20 46.34260 18.02521 36854 ft 474 kts 128°
2026-05-07 21:21 46.32461 18.06541 37000 ft 475 kts 128°
2026-05-07 21:21 46.30661 18.10557 37044 ft 478 kts 128°
2026-05-07 21:21 46.27048 18.18604 37039 ft 475 kts 128°
2026-05-07 21:22 46.23461 18.26577 37030 ft 471 kts 128°
2026-05-07 21:22 46.19890 18.34486 37042 ft 469 kts 128°
2026-05-07 21:23 46.16336 18.42333 37044 ft 466 kts 128°
2026-05-07 21:23 46.12786 18.50148 37052 ft 465 kts 128°
2026-05-07 21:24 46.09231 18.57953 37016 ft 466 kts 128°
2026-05-07 21:24 46.05671 18.65748 37044 ft 466 kts 128°
2026-05-07 21:25 46.02101 18.73545 37044 ft 468 kts 128°
2026-05-07 21:25 45.98509 18.81373 37058 ft 470 kts 128°
2026-05-07 21:26 45.94906 18.89169 37056 ft 471 kts 131°
2026-05-07 21:26 45.90421 18.95827 37040 ft 459 kts 150°
2026-05-07 21:27 45.85155 19.00960 37053 ft 458 kts 152°
2026-05-07 21:27 45.79852 19.06055 37051 ft 460 kts 152°
2026-05-07 21:28 45.74545 19.11204 37039 ft 461 kts 151°
2026-05-07 21:28 45.69245 19.16375 37045 ft 461 kts 151°
2026-05-07 21:29 45.63947 19.21543 37042 ft 460 kts 151°
2026-05-07 21:29 45.58661 19.26688 37052 ft 459 kts 151°
2026-05-07 21:30 45.53389 19.31805 37055 ft 458 kts 151°
2026-05-07 21:30 45.48115 19.36910 37044 ft 457 kts 152°
2026-05-07 21:31 45.42852 19.41993 37055 ft 457 kts 152°
2026-05-07 21:31 45.37597 19.47057 37053 ft 457 kts 152°
2026-05-07 21:32 45.32327 19.52122 37057 ft 457 kts 152°
2026-05-07 21:32 45.27052 19.57181 37056 ft 457 kts 152°
2026-05-07 21:33 45.21771 19.62236 37041 ft 458 kts 152°
2026-05-07 21:33 45.16478 19.67289 37061 ft 459 kts 152°
2026-05-07 21:34 45.11166 19.72348 37056 ft 461 kts 152°
2026-05-07 21:34 45.05839 19.77412 37056 ft 462 kts 152°
2026-05-07 21:35 45.00493 19.82483 37057 ft 463 kts 152°
2026-05-07 21:35 44.96045 19.86692 37032 ft 463 kts 152°
2026-05-07 21:36 44.90695 19.91745 37051 ft 463 kts 152°
2026-05-07 21:36 44.85342 19.96790 37054 ft 463 kts 152°
2026-05-07 21:37 44.79977 20.01832 37052 ft 463 kts 152°
2026-05-07 21:37 44.74619 20.06859 37044 ft 463 kts 152°
2026-05-07 21:38 44.69260 20.11874 37046 ft 462 kts 152°
2026-05-07 21:38 44.63897 20.16881 37054 ft 463 kts 152°
2026-05-07 21:39 44.58536 20.21875 37055 ft 463 kts 152°
2026-05-07 21:39 44.53162 20.26870 37050 ft 464 kts 152°
2026-05-07 21:40 44.47776 20.31865 37042 ft 464 kts 152°
2026-05-07 21:40 44.42388 20.36851 37058 ft 464 kts 152°
2026-05-07 21:41 44.36998 20.41827 37076 ft 465 kts 152°
2026-05-07 21:41 44.31592 20.46807 37067 ft 466 kts 152°
2026-05-07 21:42 44.26179 20.51783 37054 ft 467 kts 153°
2026-05-07 21:42 44.20744 20.56766 37067 ft 468 kts 152°
2026-05-07 21:43 44.15308 20.61740 37075 ft 468 kts 152°
2026-05-07 21:43 44.09853 20.66721 37077 ft 469 kts 152°
2026-05-07 21:44 44.04393 20.71694 37050 ft 470 kts 153°
2026-05-07 21:44 43.98916 20.76672 37054 ft 471 kts 153°
2026-05-07 21:45 43.93425 20.81651 37065 ft 472 kts 153°
2026-05-07 21:45 43.87908 20.86643 37082 ft 474 kts 153°
2026-05-07 21:46 43.82377 20.91636 37076 ft 475 kts 153°
2026-05-07 21:46 43.76829 20.96634 37048 ft 477 kts 153°
2026-05-07 21:47 43.71268 21.01633 37066 ft 477 kts 153°
2026-05-07 21:47 43.65702 21.06624 37073 ft 477 kts 153°
2026-05-07 21:48 43.60137 21.11603 37076 ft 477 kts 153°
2026-05-07 21:48 43.54567 21.16576 37070 ft 477 kts 153°
2026-05-07 21:49 43.49005 21.21531 37066 ft 476 kts 153°
2026-05-07 21:49 43.43446 21.26472 37095 ft 476 kts 153°
2026-05-07 21:50 43.37920 21.31371 37077 ft 476 kts 153°
2026-05-07 21:50 43.32316 21.36330 37087 ft 476 kts 153°
2026-05-07 21:51 43.26748 21.41245 37081 ft 476 kts 153°
2026-05-07 21:51 43.21175 21.46154 37092 ft 476 kts 153°
2026-05-07 21:52 43.15641 21.51018 37102 ft 476 kts 153°
2026-05-07 21:52 43.10056 21.55917 37080 ft 477 kts 153°
2026-05-07 21:53 43.04473 21.60803 37094 ft 476 kts 153°
2026-05-07 21:53 42.98896 21.65674 37100 ft 476 kts 153°
2026-05-07 21:54 42.93321 21.70531 37107 ft 475 kts 153°
2026-05-07 21:54 42.87747 21.75377 37083 ft 475 kts 154°
2026-05-07 21:55 42.82170 21.80215 37095 ft 475 kts 154°
2026-05-07 21:55 42.76596 21.85039 37113 ft 476 kts 154°
2026-05-07 21:56 42.70998 21.89874 37107 ft 477 kts 154°
2026-05-07 21:56 42.65390 21.94707 37113 ft 478 kts 154°
2026-05-07 21:57 42.59778 21.99534 37123 ft 477 kts 154°
2026-05-07 21:57 42.54166 22.04352 37132 ft 478 kts 154°
2026-05-07 21:58 42.48540 22.09169 37133 ft 479 kts 154°
2026-05-07 21:58 42.42902 22.13988 37126 ft 479 kts 154°
2026-05-07 21:59 42.37251 22.18808 37142 ft 481 kts 155°
2026-05-07 21:59 42.31574 22.23630 37151 ft 482 kts 156°
2026-05-07 22:00 42.25598 22.27506 37153 ft 474 kts 166°
2026-05-07 22:00 42.19478 22.30845 37112 ft 476 kts 167°
2026-05-07 22:01 42.13330 22.34221 37131 ft 479 kts 167°
2026-05-07 22:01 42.07165 22.37674 37137 ft 481 kts 166°
2026-05-07 22:02 42.00984 22.41165 37133 ft 482 kts 166°
2026-05-07 22:02 41.94808 22.44648 37096 ft 482 kts 167°
2026-05-07 22:03 41.88624 22.48123 37128 ft 482 kts 168°
2026-05-07 22:03 41.82416 22.51602 37132 ft 485 kts 168°
2026-05-07 22:04 41.76184 22.55089 37127 ft 487 kts 168°
2026-05-07 22:04 41.69923 22.58579 37141 ft 489 kts 168°
2026-05-07 22:05 41.63633 22.62089 37144 ft 490 kts 168°
2026-05-07 22:05 41.57329 22.65590 37135 ft 490 kts 168°
2026-05-07 22:06 41.51026 22.69084 37110 ft 491 kts 168°
2026-05-07 22:06 41.44724 22.72573 37114 ft 491 kts 168°
2026-05-07 22:07 41.38415 22.76059 37123 ft 490 kts 168°
2026-05-07 22:07 41.32171 22.79808 37106 ft 501 kts 159°
2026-05-07 22:08 41.26438 22.85256 37115 ft 509 kts 151°
2026-05-07 22:08 41.20798 22.90985 37111 ft 510 kts 151°
2026-05-07 22:09 41.15142 22.96672 37111 ft 511 kts 151°
2026-05-07 22:09 41.09485 23.02274 37116 ft 511 kts 152°
2026-05-07 22:10 41.03724 23.07938 37091 ft 512 kts 151°
2026-05-07 22:10 40.97991 23.13560 37099 ft 514 kts 151°
2026-05-07 22:11 40.92246 23.19187 37118 ft 514 kts 151°
2026-05-07 22:11 40.86484 23.24820 37107 ft 516 kts 151°
2026-05-07 22:12 40.80750 23.30414 37111 ft 516 kts 151°
2026-05-07 22:12 40.74937 23.36073 37107 ft 516 kts 151°
2026-05-07 22:13 40.69158 23.41686 37115 ft 515 kts 151°
2026-05-07 22:13 40.63382 23.47283 37107 ft 516 kts 151°
2026-05-07 22:14 40.57602 23.52871 37107 ft 516 kts 151°
2026-05-07 22:14 40.51821 23.58448 37098 ft 516 kts 150°
2026-05-07 22:15 40.46073 23.63982 37103 ft 515 kts 151°
2026-05-07 22:15 40.40290 23.69537 37113 ft 515 kts 151°
2026-05-07 22:16 40.34507 23.75080 37121 ft 515 kts 150°
2026-05-07 22:16 40.28713 23.80621 37111 ft 515 kts 150°
2026-05-07 22:17 40.22921 23.86147 37118 ft 516 kts 150°
2026-05-07 22:17 40.17113 23.91678 37118 ft 517 kts 150°
2026-05-07 22:18 40.08382 23.99969 37116 ft 518 kts 151°
2026-05-07 22:19 40.03534 24.04562 37090 ft 518 kts 151°
2026-05-07 22:19 39.97699 24.10079 37110 ft 518 kts 150°
2026-05-07 22:20 39.91853 24.15593 37120 ft 519 kts 150°
2026-05-07 22:20 39.85997 24.21106 37119 ft 520 kts 150°
2026-05-07 22:21 39.80133 24.26615 37118 ft 520 kts 150°
2026-05-07 22:21 39.74262 24.32117 37117 ft 520 kts 150°
2026-05-07 22:22 39.68388 24.37612 37117 ft 520 kts 150°
2026-05-07 22:22 39.62505 24.43103 37115 ft 521 kts 150°
2026-05-07 22:23 39.56621 24.48583 37121 ft 521 kts 150°
2026-05-07 22:23 39.50724 24.54062 37101 ft 522 kts 150°
2026-05-07 22:24 39.44832 24.59527 37114 ft 521 kts 150°
2026-05-07 22:24 39.38933 24.64987 37121 ft 521 kts 150°
2026-05-07 22:25 39.33030 24.70437 37119 ft 521 kts 150°
2026-05-07 22:25 39.27128 24.75877 37119 ft 521 kts 150°
2026-05-07 22:26 39.21223 24.81307 37117 ft 521 kts 149°
2026-05-07 22:26 39.15326 24.86721 37123 ft 520 kts 149°
2026-05-07 22:27 39.09457 24.92064 37120 ft 519 kts 152°
2026-05-07 22:27 39.03345 24.96919 37129 ft 515 kts 155°
2026-05-07 22:28 38.97164 25.01582 37119 ft 515 kts 155°
2026-05-07 22:28 38.90980 25.06261 37123 ft 516 kts 154°
2026-05-07 22:29 38.84802 25.10981 37132 ft 517 kts 154°
2026-05-07 22:29 38.78617 25.15722 37134 ft 519 kts 154°
2026-05-07 22:30 38.72410 25.20472 37111 ft 520 kts 154°
2026-05-07 22:30 38.66191 25.25219 37132 ft 521 kts 154°
2026-05-07 22:31 38.59960 25.29963 37134 ft 522 kts 154°
2026-05-07 22:31 38.53720 25.34703 37134 ft 522 kts 154°
2026-05-07 22:32 38.47468 25.39444 37117 ft 523 kts 154°
2026-05-07 22:32 38.41221 25.44172 37130 ft 522 kts 154°
2026-05-07 22:33 38.34969 25.48893 37130 ft 522 kts 154°
2026-05-07 22:33 38.28725 25.53598 37133 ft 521 kts 154°
2026-05-07 22:34 38.22486 25.58290 37121 ft 521 kts 154°
2026-05-07 22:34 38.16251 25.62970 37133 ft 520 kts 154°
2026-05-07 22:35 38.10024 25.67633 37133 ft 519 kts 153°
2026-05-07 22:35 38.03806 25.72282 37143 ft 519 kts 153°
2026-05-07 22:36 37.97582 25.76926 37144 ft 519 kts 153°
2026-05-07 22:36 37.91362 25.81557 37136 ft 518 kts 153°
2026-05-07 22:37 37.85147 25.86176 37146 ft 518 kts 153°
2026-05-07 22:37 37.78929 25.90787 37136 ft 518 kts 153°
2026-05-07 22:38 37.72708 25.95392 37153 ft 518 kts 153°
2026-05-07 22:38 37.66484 25.99990 37141 ft 518 kts 153°
2026-05-07 22:39 37.60260 26.04578 37154 ft 518 kts 153°
2026-05-07 22:39 37.54028 26.09171 37082 ft 518 kts 153°
2026-05-07 22:40 37.47843 26.13770 37139 ft 517 kts 154°
2026-05-07 22:40 37.41615 26.18291 37148 ft 517 kts 153°
2026-05-07 22:41 37.35423 26.22799 37152 ft 518 kts 153°
2026-05-07 22:41 37.29191 26.27346 37155 ft 519 kts 153°
2026-05-07 22:42 37.22941 26.31903 37152 ft 520 kts 153°
2026-05-07 22:42 37.16683 26.36457 37139 ft 520 kts 153°
2026-05-07 22:43 37.10421 26.41003 37155 ft 520 kts 153°
2026-05-07 22:43 37.04158 26.45541 37160 ft 520 kts 153°
2026-05-07 22:44 36.97900 26.50066 37150 ft 520 kts 153°
2026-05-07 22:44 36.91636 26.54587 37132 ft 519 kts 153°
2026-05-07 22:45 36.85383 26.59092 37153 ft 518 kts 152°
2026-05-07 22:45 36.79136 26.63583 37157 ft 518 kts 152°
2026-05-07 22:46 36.72895 26.68062 37163 ft 518 kts 152°
2026-05-07 22:46 36.66648 26.72536 37158 ft 518 kts 152°
2026-05-07 22:47 36.60412 26.76994 37153 ft 517 kts 152°
2026-05-07 22:47 36.54219 26.81414 37156 ft 516 kts 152°
2026-05-07 22:48 36.47985 26.85853 37161 ft 516 kts 152°
2026-05-07 22:48 36.41754 26.90283 37159 ft 516 kts 152°
2026-05-07 22:49 36.35514 26.94710 37156 ft 516 kts 152°
2026-05-07 22:49 36.29274 26.99130 37161 ft 517 kts 152°
2026-05-07 22:50 36.23023 27.03549 37158 ft 517 kts 152°
2026-05-07 22:50 36.16768 27.07963 37158 ft 518 kts 152°
2026-05-07 22:51 36.10502 27.12376 37142 ft 518 kts 152°
2026-05-07 22:51 36.04241 27.16777 37160 ft 518 kts 152°
2026-05-07 22:52 35.97970 27.21179 37169 ft 519 kts 152°
2026-05-07 22:52 35.91693 27.25575 37164 ft 519 kts 152°
2026-05-07 22:53 35.85403 27.29972 37139 ft 519 kts 152°
2026-05-07 22:53 35.79124 27.34353 37159 ft 519 kts 152°
2026-05-07 22:54 35.72883 27.38701 37165 ft 518 kts 152°
2026-05-07 22:54 35.66610 27.43063 37166 ft 518 kts 152°
2026-05-07 22:55 35.60336 27.47417 37166 ft 518 kts 152°
2026-05-07 22:55 35.54062 27.51764 37164 ft 518 kts 152°
2026-05-07 22:56 35.47785 27.56104 37165 ft 517 kts 152°
2026-05-07 22:56 35.41512 27.60434 37167 ft 517 kts 152°
2026-05-07 22:57 35.35239 27.64756 37167 ft 517 kts 152°
2026-05-07 22:57 35.28964 27.69072 37152 ft 517 kts 152°
2026-05-07 22:58 35.22689 27.73380 37162 ft 517 kts 152°
2026-05-07 22:58 35.16413 27.77682 37166 ft 517 kts 152°
2026-05-07 22:59 35.10132 27.81979 37163 ft 517 kts 152°
2026-05-07 22:59 35.03850 27.86268 37163 ft 517 kts 152°
2026-05-07 23:00 34.97560 27.90556 37169 ft 518 kts 152°
2026-05-07 23:00 34.91319 27.94804 37171 ft 518 kts 152°
2026-05-07 23:01 34.85027 27.99077 37173 ft 518 kts 152°
2026-05-07 23:01 34.78727 28.03349 37168 ft 518 kts 152°
2026-05-07 23:02 34.72431 28.07610 37185 ft 518 kts 152°
2026-05-07 23:02 34.66134 28.11865 37167 ft 518 kts 152°
2026-05-07 23:03 34.59829 28.16118 37168 ft 518 kts 152°
2026-05-07 23:03 34.53523 28.20364 37166 ft 518 kts 152°
2026-05-07 23:04 34.47217 28.24603 37153 ft 518 kts 152°
2026-05-07 23:04 34.40913 28.28833 37166 ft 518 kts 152°
2026-05-07 23:05 34.34609 28.33055 37166 ft 518 kts 152°
2026-05-07 23:05 34.28303 28.37271 37179 ft 518 kts 152°
2026-05-07 23:06 34.21993 28.41484 37142 ft 518 kts 152°
2026-05-07 23:06 34.15679 28.45691 37166 ft 518 kts 152°
2026-05-07 23:07 34.09370 28.49888 37160 ft 518 kts 152°
2026-05-07 23:07 34.04116 28.53378 37163 ft 518 kts 152°
2026-05-07 23:08 33.96770 28.58248 37167 ft 519 kts 152°
2026-05-07 23:08 33.90450 28.62431 37155 ft 518 kts 152°
2026-05-07 23:09 33.84130 28.66607 37178 ft 518 kts 152°
2026-05-07 23:09 33.78830 28.70106 37168 ft 519 kts 152°
2026-05-07 23:10 33.72516 28.74317 37159 ft 519 kts 148°
2026-05-07 23:10 33.69578 28.76829 37144 ft 518 kts 137°
2026-05-07 23:10 33.66932 28.79753 37180 ft 516 kts 134°
2026-05-07 23:11 33.61743 28.85717 37157 ft 517 kts 134°
2026-05-07 23:11 33.56534 28.91663 37162 ft 517 kts 134°
2026-05-07 23:12 33.51277 28.97570 37178 ft 518 kts 134°
2026-05-07 23:12 33.46038 29.03414 37164 ft 519 kts 135°
2026-05-07 23:13 33.40754 29.09298 37156 ft 519 kts 135°
2026-05-07 23:13 33.35469 29.15176 37160 ft 519 kts 135°
2026-05-07 23:14 33.30181 29.21050 37149 ft 518 kts 135°
2026-05-07 23:14 33.24900 29.26907 37170 ft 518 kts 134°
2026-05-07 23:15 33.19614 29.32759 37158 ft 518 kts 134°
2026-05-07 23:15 33.14328 29.38601 37154 ft 518 kts 134°
2026-05-07 23:16 33.09049 29.44426 37158 ft 517 kts 134°
2026-05-07 23:16 33.03765 29.50245 37155 ft 517 kts 134°
2026-05-07 23:17 32.98488 29.56047 37154 ft 516 kts 134°
2026-05-07 23:17 32.93208 29.61842 37147 ft 516 kts 134°
2026-05-07 23:18 32.87931 29.67624 37154 ft 516 kts 134°
2026-05-07 23:18 32.82651 29.73401 37157 ft 516 kts 134°
2026-05-07 23:19 32.77369 29.79170 37151 ft 516 kts 134°
2026-05-07 23:19 32.72085 29.84930 37154 ft 516 kts 134°
2026-05-07 23:20 32.66790 29.90695 37136 ft 517 kts 134°
2026-05-07 23:20 32.61488 29.96456 37147 ft 517 kts 134°
2026-05-07 23:21 32.56218 30.02173 37150 ft 517 kts 134°
2026-05-07 23:21 32.50907 30.07927 37149 ft 518 kts 134°
2026-05-07 23:22 32.45582 30.13681 37153 ft 518 kts 134°
2026-05-07 23:22 32.40247 30.19430 37155 ft 519 kts 134°
2026-05-07 23:23 32.34907 30.25177 37134 ft 520 kts 134°
2026-05-07 23:23 32.29661 30.30807 37107 ft 495 kts 134°
2026-05-07 23:23 32.27139 30.33507 37116 ft 482 kts 134°
2026-05-07 23:24 32.24691 30.36128 37116 ft 469 kts 133°
2026-05-07 23:24 32.22305 30.38684 37109 ft 457 kts 133°
2026-05-07 23:24 32.19956 30.41203 37158 ft 458 kts 133°
2026-05-07 23:25 32.15211 30.46300 37165 ft 471 kts 133°
2026-05-07 23:25 32.10302 30.51557 37154 ft 482 kts 133°
2026-05-07 23:26 32.05305 30.56884 37135 ft 485 kts 133°
2026-05-07 23:26 32.00343 30.62158 37116 ft 475 kts 133°
2026-05-07 23:27 31.93008 30.69956 37147 ft 474 kts 133°
2026-05-07 23:27 31.88101 30.75166 37132 ft 476 kts 133°
2026-05-07 23:28 31.83175 30.80387 37133 ft 477 kts 133°
2026-05-07 23:28 31.78240 30.85608 37131 ft 478 kts 133°
2026-05-07 23:29 31.73290 30.90838 37135 ft 479 kts 133°
2026-05-07 23:29 31.68334 30.96065 37133 ft 479 kts 133°
2026-05-07 23:30 31.63368 31.01297 37122 ft 480 kts 133°
2026-05-07 23:30 31.58404 31.06519 37128 ft 480 kts 133°
2026-05-07 23:31 31.53046 31.11212 37123 ft 486 kts 152°
2026-05-07 23:31 31.49932 31.12741 37124 ft 486 kts 163°
2026-05-07 23:31 31.46652 31.13641 37124 ft 483 kts 174°
2026-05-07 23:32 31.40008 31.14753 37107 ft 483 kts 175°
2026-05-07 23:32 31.33405 31.15884 37117 ft 483 kts 174°
2026-05-07 23:33 31.26770 31.17105 37118 ft 483 kts 173°
2026-05-07 23:33 31.20135 31.18336 37119 ft 483 kts 173°
2026-05-07 23:34 31.13502 31.19578 37116 ft 482 kts 173°
2026-05-07 23:34 31.06876 31.20818 37117 ft 482 kts 173°
2026-05-07 23:35 31.00252 31.22055 37113 ft 482 kts 173°
2026-05-07 23:35 30.93635 31.23287 37118 ft 481 kts 173°
2026-05-07 23:36 30.87024 31.24517 37122 ft 481 kts 173°
2026-05-07 23:36 30.80411 31.25745 37120 ft 481 kts 173°
2026-05-07 23:37 30.73791 31.26973 37120 ft 482 kts 173°
2026-05-07 23:37 30.67175 31.28198 37120 ft 482 kts 173°
2026-05-07 23:38 30.60543 31.29425 37115 ft 483 kts 173°
2026-05-07 23:38 30.53908 31.30651 37114 ft 483 kts 173°
2026-05-07 23:39 30.47302 31.31870 37116 ft 484 kts 173°
2026-05-07 23:39 30.40656 31.33086 37111 ft 484 kts 173°
2026-05-07 23:40 30.34002 31.34296 37103 ft 483 kts 173°
2026-05-07 23:40 30.27364 31.35503 37104 ft 483 kts 173°
2026-05-07 23:41 30.20732 31.36708 37104 ft 482 kts 173°
2026-05-07 23:41 30.14110 31.37910 37097 ft 481 kts 173°
2026-05-07 23:42 30.07507 31.39106 37097 ft 480 kts 173°
2026-05-07 23:42 30.00916 31.40301 37103 ft 479 kts 173°
2026-05-07 23:43 29.94322 31.41495 37115 ft 481 kts 173°
2026-05-07 23:43 29.87687 31.42697 37095 ft 484 kts 173°
2026-05-07 23:44 29.81019 31.43898 37110 ft 486 kts 173°
2026-05-07 23:44 29.74334 31.45097 37098 ft 486 kts 173°
2026-05-07 23:45 29.67652 31.46292 37090 ft 486 kts 173°
2026-05-07 23:45 29.60987 31.47483 37082 ft 484 kts 173°
2026-05-07 23:46 29.54343 31.48664 37085 ft 482 kts 173°
2026-05-07 23:46 29.47734 31.49835 37077 ft 479 kts 173°
2026-05-07 23:47 29.41168 31.51003 37088 ft 477 kts 173°
2026-05-07 23:47 29.34667 31.52157 37082 ft 475 kts 173°
2026-05-07 23:48 29.28085 31.53319 37074 ft 475 kts 173°
2026-05-07 23:48 29.21554 31.54460 37092 ft 475 kts 173°
2026-05-07 23:49 29.15060 31.55590 37095 ft 476 kts 173°
2026-05-07 23:49 29.08491 31.56729 37073 ft 478 kts 173°
2026-05-07 23:50 29.01897 31.57868 37087 ft 480 kts 173°
2026-05-07 23:50 28.95274 31.59007 37077 ft 482 kts 173°
2026-05-07 23:51 28.88631 31.60147 37072 ft 484 kts 173°
2026-05-07 23:51 28.81968 31.61289 37062 ft 484 kts 173°
2026-05-07 23:52 28.75303 31.62433 37066 ft 484 kts 173°
2026-05-07 23:52 28.68648 31.63576 37063 ft 483 kts 173°
2026-05-07 23:53 28.62003 31.64716 37059 ft 482 kts 173°
2026-05-07 23:53 28.55389 31.65852 37052 ft 480 kts 173°
2026-05-07 23:54 28.48805 31.66984 37052 ft 477 kts 173°
2026-05-07 23:54 28.42248 31.68111 37055 ft 475 kts 173°
2026-05-07 23:55 28.35722 31.69234 37057 ft 474 kts 173°
2026-05-07 23:55 28.29214 31.70354 37048 ft 472 kts 173°
2026-05-07 23:56 28.22724 31.71471 37054 ft 472 kts 173°
2026-05-07 23:56 28.16235 31.72588 37069 ft 472 kts 173°
2026-05-07 23:57 28.09736 31.73706 37065 ft 473 kts 173°
2026-05-07 23:57 28.04323 31.74637 37060 ft 474 kts 173°
2026-05-07 23:58 27.96738 31.75944 37063 ft 475 kts 173°
2026-05-07 23:58 27.90186 31.77075 37056 ft 477 kts 173°
2026-05-07 23:59 27.84688 31.78023 37062 ft 477 kts 173°
2026-05-07 23:59 27.78157 31.79149 37039 ft 478 kts 173°
2026-05-08 00:00 27.71585 31.80291 37066 ft 478 kts 173°
2026-05-08 00:00 27.65019 31.81442 37053 ft 477 kts 173°
2026-05-08 00:01 27.58468 31.82592 37055 ft 476 kts 173°
2026-05-08 00:01 27.51936 31.83737 37040 ft 474 kts 173°
2026-05-08 00:02 27.45428 31.84886 37048 ft 472 kts 173°
2026-05-08 00:02 27.38946 31.86038 37044 ft 471 kts 173°
2026-05-08 00:03 27.32485 31.87188 37055 ft 469 kts 173°
2026-05-08 00:03 27.26051 31.88334 37051 ft 468 kts 173°
2026-05-08 00:04 27.19624 31.89490 37046 ft 467 kts 173°
2026-05-08 00:04 27.13217 31.90655 37050 ft 466 kts 173°
2026-05-08 00:05 27.06820 31.91824 37044 ft 466 kts 173°
2026-05-08 00:05 27.00421 31.92996 37046 ft 466 kts 173°
2026-05-08 00:06 26.94028 31.94172 37033 ft 465 kts 173°
2026-05-08 00:06 26.87638 31.95363 37034 ft 466 kts 173°
2026-05-08 00:07 26.81288 31.96552 37034 ft 465 kts 173°
2026-05-08 00:07 26.74904 31.97750 37022 ft 465 kts 173°
2026-05-08 00:08 26.68523 31.98946 37026 ft 465 kts 173°
2026-05-08 00:08 26.62134 32.00144 37020 ft 465 kts 173°
2026-05-08 00:09 26.55748 32.01341 37017 ft 465 kts 173°
2026-05-08 00:09 26.49359 32.02539 37014 ft 465 kts 173°
2026-05-08 00:10 26.42978 32.03737 36983 ft 465 kts 173°
2026-05-08 00:10 26.36614 32.04955 37004 ft 464 kts 173°
2026-05-08 00:11 26.30266 32.06185 37006 ft 463 kts 173°
2026-05-08 00:11 26.23931 32.07415 37016 ft 462 kts 173°
2026-05-08 00:12 26.17601 32.08659 36992 ft 461 kts 173°
2026-05-08 00:12 26.11296 32.09948 36980 ft 460 kts 173°
2026-05-08 00:13 26.05020 32.11269 36980 ft 458 kts 173°
2026-05-08 00:13 25.98809 32.12586 36985 ft 457 kts 173°
2026-05-08 00:14 25.92530 32.13921 36982 ft 456 kts 173°
2026-05-08 00:14 25.86306 32.15253 36974 ft 455 kts 173°
2026-05-08 00:15 25.80103 32.16611 36977 ft 454 kts 173°
2026-05-08 00:15 25.73961 32.17968 36978 ft 453 kts 173°
2026-05-08 00:16 25.67780 32.19339 36968 ft 452 kts 173°
2026-05-08 00:16 25.61613 32.20709 36932 ft 452 kts 173°
2026-05-08 00:17 25.55461 32.22102 36948 ft 451 kts 173°
2026-05-08 00:17 25.49320 32.23519 36950 ft 451 kts 173°
2026-05-08 00:18 25.43183 32.24942 36970 ft 450 kts 173°
2026-05-08 00:18 25.37047 32.26366 36956 ft 450 kts 173°
2026-05-08 00:19 25.30935 32.27795 36961 ft 448 kts 173°
2026-05-08 00:19 25.24844 32.29256 36958 ft 448 kts 173°
2026-05-08 00:20 25.18767 32.30728 36946 ft 446 kts 173°
2026-05-08 00:20 25.12708 32.32197 36961 ft 445 kts 173°
2026-05-08 00:21 25.06696 32.33653 36950 ft 445 kts 173°
2026-05-08 00:21 25.00665 32.35126 36967 ft 443 kts 173°
2026-05-08 00:22 24.94658 32.36655 36950 ft 443 kts 173°
2026-05-08 00:22 24.88668 32.38200 36952 ft 442 kts 173°
2026-05-08 00:23 24.82684 32.39750 36956 ft 441 kts 173°
2026-05-08 00:23 24.76717 32.41295 36915 ft 440 kts 173°
2026-05-08 00:24 24.70767 32.42852 36939 ft 439 kts 173°
2026-05-08 00:24 24.64840 32.44416 36944 ft 438 kts 173°
2026-05-08 00:25 24.58920 32.45983 36940 ft 436 kts 173°
2026-05-08 00:25 24.53030 32.47543 36942 ft 435 kts 173°
2026-05-08 00:26 24.47162 32.49097 36921 ft 433 kts 173°
2026-05-08 00:26 24.41324 32.50638 36934 ft 431 kts 173°
2026-05-08 00:27 24.35497 32.52175 36933 ft 430 kts 173°
2026-05-08 00:27 24.29691 32.53705 36927 ft 429 kts 173°
2026-05-08 00:28 24.23899 32.55234 36936 ft 428 kts 173°
2026-05-08 00:28 24.18120 32.56758 36926 ft 427 kts 173°
2026-05-08 00:29 24.12346 32.58273 36935 ft 426 kts 173°
2026-05-08 00:29 24.06613 32.59775 36939 ft 427 kts 173°
2026-05-08 00:30 24.00835 32.61286 36941 ft 427 kts 173°
2026-05-08 00:30 23.95054 32.62806 36942 ft 428 kts 173°
2026-05-08 00:31 23.89262 32.64358 36937 ft 429 kts 173°
2026-05-08 00:31 23.83460 32.65922 36928 ft 430 kts 173°
2026-05-08 00:32 23.77653 32.67489 36929 ft 430 kts 173°
2026-05-08 00:32 23.71840 32.69057 36928 ft 430 kts 173°
2026-05-08 00:33 23.66032 32.70622 36928 ft 430 kts 173°
2026-05-08 00:33 23.60225 32.72185 36916 ft 429 kts 173°
2026-05-08 00:34 23.54435 32.73733 36920 ft 428 kts 173°
2026-05-08 00:34 23.48649 32.75277 36922 ft 427 kts 173°
2026-05-08 00:35 23.42877 32.76817 36917 ft 427 kts 173°
2026-05-08 00:35 23.37113 32.78354 36919 ft 426 kts 173°
2026-05-08 00:36 23.31399 32.79878 36923 ft 425 kts 173°
2026-05-08 00:36 23.25661 32.81399 36918 ft 424 kts 173°
2026-05-08 00:37 23.19924 32.82917 36920 ft 424 kts 173°
2026-05-08 00:38 23.11331 32.85191 36919 ft 424 kts 173°
2026-05-08 00:38 23.05601 32.86704 36925 ft 424 kts 173°
2026-05-08 00:39 22.99878 32.88185 36913 ft 423 kts 172°
2026-05-08 00:39 22.94143 32.89643 36924 ft 423 kts 173°
2026-05-08 00:40 22.88408 32.91100 36923 ft 424 kts 173°
2026-05-08 00:40 22.82661 32.92561 36924 ft 424 kts 173°
2026-05-08 00:41 22.76908 32.94023 36923 ft 425 kts 173°
2026-05-08 00:41 22.71149 32.95466 36912 ft 425 kts 172°
2026-05-08 00:42 22.65385 32.96886 36917 ft 424 kts 173°
2026-05-08 00:42 22.59637 32.98296 36917 ft 423 kts 173°
2026-05-08 00:43 22.53904 32.99701 36917 ft 422 kts 173°
2026-05-08 00:43 22.48190 33.01102 36918 ft 421 kts 173°
2026-05-08 00:44 22.42491 33.02482 36908 ft 418 kts 172°
2026-05-08 00:44 22.36872 33.03817 36913 ft 415 kts 173°
2026-05-08 00:45 22.31250 33.05146 36907 ft 412 kts 173°
2026-05-08 00:45 22.25660 33.06468 36914 ft 410 kts 173°
2026-05-08 00:46 22.20087 33.07787 36920 ft 409 kts 173°
2026-05-08 00:46 22.14526 33.09093 36918 ft 408 kts 173°
2026-05-08 00:47 22.08973 33.10374 36917 ft 408 kts 173°
2026-05-08 00:47 22.03420 33.11650 36914 ft 408 kts 173°
2026-05-08 00:48 21.97874 33.12922 36915 ft 408 kts 173°
2026-05-08 00:48 21.92325 33.14192 36918 ft 407 kts 173°
2026-05-08 00:49 21.87679 33.15255 36907 ft 407 kts 173°
2026-05-08 00:49 21.82176 33.16516 36926 ft 406 kts 173°
2026-05-08 00:50 21.76661 33.17811 36899 ft 405 kts 173°
2026-05-08 00:50 21.71183 33.19113 36901 ft 402 kts 173°
2026-05-08 00:51 21.65747 33.20413 36901 ft 399 kts 173°
2026-05-08 00:51 21.60346 33.21708 36906 ft 397 kts 173°
2026-05-08 00:52 21.54982 33.23005 36900 ft 395 kts 173°
2026-05-08 00:52 21.49628 33.24309 36907 ft 394 kts 173°
2026-05-08 00:53 21.44282 33.25613 36910 ft 394 kts 173°
2026-05-08 00:53 21.38936 33.26916 36905 ft 395 kts 173°
2026-05-08 00:54 21.33573 33.28221 36904 ft 396 kts 173°
2026-05-08 00:54 21.28195 33.29529 36906 ft 397 kts 173°
2026-05-08 00:55 21.22807 33.30847 36900 ft 397 kts 173°
2026-05-08 00:55 21.17409 33.32169 36904 ft 398 kts 173°
2026-05-08 00:56 21.12012 33.33492 36904 ft 398 kts 173°
2026-05-08 00:56 21.06612 33.34814 36898 ft 398 kts 173°
2026-05-08 00:57 21.01221 33.36133 36901 ft 397 kts 173°
2026-05-08 00:57 20.95839 33.37450 36898 ft 397 kts 173°
2026-05-08 00:58 20.90459 33.38768 36896 ft 396 kts 173°
2026-05-08 00:58 20.85093 33.40083 36896 ft 395 kts 173°
2026-05-08 00:59 20.79737 33.41396 36895 ft 395 kts 173°
2026-05-08 00:59 20.74385 33.42707 36894 ft 394 kts 173°
2026-05-08 01:00 20.69045 33.44016 36891 ft 393 kts 173°
2026-05-08 01:00 20.63720 33.45321 36895 ft 392 kts 173°
2026-05-08 01:01 20.58409 33.46625 36892 ft 391 kts 173°
2026-05-08 01:01 20.53115 33.47924 36889 ft 390 kts 173°
2026-05-08 01:02 20.47863 33.49213 36887 ft 389 kts 173°
2026-05-08 01:02 20.42586 33.50506 36878 ft 389 kts 173°
2026-05-08 01:03 20.37322 33.51793 36883 ft 388 kts 173°
2026-05-08 01:03 20.32071 33.53075 36885 ft 387 kts 173°
2026-05-08 01:04 20.26821 33.54357 36884 ft 387 kts 173°
2026-05-08 01:04 20.21579 33.55635 36889 ft 386 kts 173°
2026-05-08 01:05 20.16339 33.56913 36889 ft 386 kts 173°
2026-05-08 01:05 20.11099 33.58190 36882 ft 386 kts 173°
2026-05-08 01:06 20.05868 33.59462 36881 ft 386 kts 173°
2026-05-08 01:06 20.00634 33.60735 36885 ft 386 kts 173°